When you browse on this site, cookies collect data to enhance your experience and personalize the content and advertising you see.
Visit our Privacy Policy to learn more. By continuing to use the site, you agree to this use of cookies and data.
  • In Norway
  • List of Countries
  • For 7 days
  • Water Temperature
  • Satellite Maps
  • Weather Map
  • Weather Widgets
  • user-avatar
    Login

    Hourly Weather Perth

    Today, 22 March, Friday

    Time Temperature Precipitation Wind Pressure Humidity
    00:00 +25°C° 0 mm 2 mps 756 mmHg 71%
    01:00 +25°C° 0 mm 3 mps 756 mmHg 72%
    02:00 +25°C° 0 mm 3 mps 756 mmHg 68%
    03:00 +25°C° 0 mm 3 mps 756 mmHg 70%
    04:00 +24°C° 0 mm 3 mps 756 mmHg 72%
    05:00 +24°C° 0 mm 3 mps 756 mmHg 73%
    06:00 +24°C° 0 mm 3 mps 756 mmHg 73%
    07:00 +23°C° 0 mm 4 mps 757 mmHg 72%
    08:00 +23°C° 0 mm 4 mps 757 mmHg 71%
    09:00 +26°C° 0 mm 4 mps 757 mmHg 65%
    10:00 +28°C° 0 mm 4 mps 757 mmHg 58%
    11:00 +30°C° 0 mm 4 mps 757 mmHg 52%
    12:00 +30°C° 0 mm 4 mps 757 mmHg 49%
    13:00 +32°C° 0 mm 5 mps 757 mmHg 47%
    14:00 +33°C° 0 mm 5 mps 756 mmHg 45%
    15:00 +32°C° 0 mm 6 mps 757 mmHg 47%
    16:00 +30°C° 0 mm 6 mps 757 mmHg 49%
    17:00 +29°C° 0 mm 7 mps 757 mmHg 52%
    18:00 +27°C° 0 mm 7 mps 757 mmHg 57%
    19:00 +24°C° 0 mm 7 mps 758 mmHg 63%
    20:00 +22°C° 0 mm 6 mps 759 mmHg 68%
    21:00 +22°C° 0 mm 6 mps 759 mmHg 69%
    22:00 +21°C° 0 mm 6 mps 760 mmHg 69%
    23:00 +20°C° 0 mm 6 mps 760 mmHg 69%

    Tomorrow, 23 March, Saturday

    Time Temperature Precipitation Wind Pressure Humidity
    00:00 +19°C° 0 mm 6 mps 760 mmHg 68%
    01:00 +19°C° 0 mm 6 mps 761 mmHg 67%
    02:00 +17°C° 0 mm 6 mps 761 mmHg 66%
    03:00 +17°C° 0 mm 6 mps 761 mmHg 66%
    04:00 +16°C° 0 mm 6 mps 761 mmHg 67%
    05:00 +16°C° 0 mm 6 mps 761 mmHg 67%
    06:00 +16°C° 0 mm 6 mps 761 mmHg 65%
    07:00 +17°C° 0 mm 6 mps 762 mmHg 62%
    08:00 +17°C° 0 mm 6 mps 762 mmHg 60%
    09:00 +20°C° 0 mm 6 mps 762 mmHg 53%
    10:00 +22°C° 0 mm 5 mps 761 mmHg 45%
    11:00 +25°C° 0 mm 5 mps 761 mmHg 38%
    12:00 +26°C° 0 mm 5 mps 760 mmHg 34%
    13:00 +27°C° 0 mm 5 mps 760 mmHg 30%
    14:00 +28°C° 0 mm 4 mps 759 mmHg 27%
    15:00 +28°C° 0 mm 4 mps 759 mmHg 28%
    16:00 +28°C° 0 mm 5 mps 759 mmHg 29%
    17:00 +28°C° 0 mm 5 mps 759 mmHg 30%
    18:00 +26°C° 0 mm 5 mps 759 mmHg 35%
    19:00 +23°C° 0 mm 5 mps 759 mmHg 39%
    20:00 +22°C° 0 mm 5 mps 760 mmHg 43%
    21:00 +21°C° 0 mm 4 mps 760 mmHg 45%
    22:00 +20°C° 0 mm 4 mps 761 mmHg 46%
    23:00 +19°C° 0 mm 4 mps 761 mmHg 47%

    Day after tomorrow, 24 March, Sunday

    Time Temperature Precipitation Wind Pressure Humidity
    00:00 +19°C° 0 mm 4 mps 761 mmHg 50%
    01:00 +18°C° 0 mm 4 mps 761 mmHg 53%
    02:00 +17°C° 0 mm 4 mps 760 mmHg 56%
    03:00 +15°C° 0 mm 4 mps 760 mmHg 59%
    04:00 +15°C° 0 mm 4 mps 761 mmHg 62%
    05:00 +14°C° 0 mm 4 mps 761 mmHg 65%
    06:00 +15°C° 0 mm 5 mps 761 mmHg 64%
    07:00 +15°C° 0 mm 5 mps 761 mmHg 63%
    08:00 +16°C° 0 mm 5 mps 762 mmHg 61%
    09:00 +19°C° 0 mm 4 mps 762 mmHg 55%
    10:00 +21°C° 0 mm 4 mps 762 mmHg 48%
    11:00 +24°C° 0 mm 3 mps 762 mmHg 41%
    12:00 +26°C° 0 mm 3 mps 761 mmHg 38%
    13:00 +27°C° 0 mm 3 mps 760 mmHg 35%
    14:00 +28°C° 0 mm 4 mps 760 mmHg 32%
    15:00 +28°C° 0 mm 4 mps 760 mmHg 33%
    16:00 +28°C° 0 mm 4 mps 760 mmHg 34%
    17:00 +27°C° 0 mm 4 mps 759 mmHg 35%
    18:00 +26°C° 0 mm 5 mps 760 mmHg 37%
    19:00 +23°C° 0 mm 5 mps 761 mmHg 39%
    20:00 +22°C° 0 mm 5 mps 761 mmHg 41%
    21:00 +21°C° 0 mm 5 mps 762 mmHg 44%
    22:00 +20°C° 0 mm 6 mps 763 mmHg 47%
    23:00 +19°C° 0 mm 6 mps 763 mmHg 50%

    25 March, Monday

    Time Temperature Precipitation Wind Pressure Humidity
    00:00 +17°C° 0 mm 6 mps 763 mmHg 53%
    01:00 +16°C° 0 mm 6 mps 763 mmHg 56%
    02:00 +15°C° 0 mm 6 mps 764 mmHg 59%
    03:00 +15°C° 0 mm 6 mps 764 mmHg 60%
    04:00 +14°C° 0 mm 6 mps 764 mmHg 61%
    05:00 +14°C° 0 mm 6 mps 764 mmHg 63%
    06:00 +14°C° 0 mm 7 mps 765 mmHg 61%
    07:00 +15°C° 0 mm 7 mps 765 mmHg 60%
    08:00 +15°C° 0 mm 7 mps 765 mmHg 59%
    09:00 +17°C° 0 mm 7 mps 765 mmHg 52%
    10:00 +20°C° 0 mm 7 mps 765 mmHg 45%
    11:00 +22°C° 0 mm 6 mps 765 mmHg 38%
    12:00 +23°C° 0 mm 6 mps 765 mmHg 35%
    13:00 +24°C° 0 mm 6 mps 764 mmHg 32%
    14:00 +27°C° 0 mm 5 mps 763 mmHg 29%
    15:00 +27°C° 0 mm 5 mps 763 mmHg 29%
    16:00 +27°C° 0 mm 5 mps 763 mmHg 29%
    17:00 +27°C° 0 mm 5 mps 763 mmHg 29%
    18:00 +25°C° 0 mm 5 mps 763 mmHg 32%
    19:00 +23°C° 0 mm 5 mps 764 mmHg 35%
    20:00 +22°C° 0 mm 4 mps 764 mmHg 38%
    21:00 +22°C° 0 mm 5 mps 764 mmHg 39%
    22:00 +21°C° 0 mm 6 mps 764 mmHg 40%
    23:00 +21°C° 0 mm 6 mps 765 mmHg 41%

    26 March, Tuesday

    Time Temperature Precipitation Wind Pressure Humidity
    00:00 +21°C° 0 mm 6 mps 764 mmHg 43%
    01:00 +20°C° 0 mm 6 mps 764 mmHg 45%
    02:00 +20°C° 0 mm 6 mps 764 mmHg 46%
    03:00 +19°C° 0 mm 6 mps 764 mmHg 48%
    04:00 +19°C° 0 mm 6 mps 764 mmHg 50%
    05:00 +17°C° 0 mm 6 mps 764 mmHg 52%
    06:00 +19°C° 0 mm 6 mps 764 mmHg 51%
    07:00 +19°C° 0 mm 6 mps 765 mmHg 50%
    08:00 +20°C° 0 mm 6 mps 765 mmHg 49%
    09:00 +22°C° 0 mm 6 mps 765 mmHg 44%
    10:00 +23°C° 0 mm 5 mps 765 mmHg 40%
    11:00 +26°C° 0 mm 5 mps 765 mmHg 35%
    12:00 +27°C° 0 mm 4 mps 764 mmHg 33%
    13:00 +29°C° 0 mm 4 mps 763 mmHg 31%
    14:00 +30°C° 0 mm 3 mps 762 mmHg 29%
    15:00 +30°C° 0 mm 3 mps 762 mmHg 28%
    16:00 +30°C° 0 mm 3 mps 762 mmHg 28%
    17:00 +30°C° 0 mm 3 mps 762 mmHg 27%
    18:00 +28°C° 0 mm 3 mps 762 mmHg 30%
    19:00 +26°C° 0 mm 3 mps 762 mmHg 33%
    20:00 +24°C° 0 mm 3 mps 763 mmHg 36%
    21:00 +24°C° 0 mm 3 mps 762 mmHg 35%
    22:00 +24°C° 0 mm 3 mps 762 mmHg 34%
    23:00 +24°C° 0 mm 3 mps 762 mmHg 33%

    27 March, Wednesday

    Time Temperature Precipitation Wind Pressure Humidity
    00:00 +24°C° 0 mm 3 mps 762 mmHg 33%
    01:00 +24°C° 0 mm 3 mps 761 mmHg 34%
    02:00 +24°C° 0 mm 3 mps 761 mmHg 34%
    03:00 +24°C° 0 mm 3 mps 761 mmHg 36%
    04:00 +22°C° 0 mm 3 mps 761 mmHg 38%
    05:00 +22°C° 0 mm 3 mps 761 mmHg 40%
    06:00 +22°C° 0 mm 3 mps 762 mmHg 39%
    07:00 +24°C° 0 mm 3 mps 762 mmHg 38%
    08:00 +25°C° 0 mm 4 mps 762 mmHg 37%
    09:00 +27°C° 0 mm 3 mps 762 mmHg 33%
    10:00 +29°C° 0 mm 2 mps 762 mmHg 30%
    11:00 +32°C° 0 mm 1 mps 761 mmHg 26%
    12:00 +34°C° 0 mm 2 mps 761 mmHg 24%
    13:00 +35°C° 0 mm 2 mps 760 mmHg 22%
    14:00 +36°C° 0 mm 2 mps 760 mmHg 20%
    15:00 +34°C° 0 mm 3 mps 760 mmHg 23%
    16:00 +33°C° 0 mm 4 mps 759 mmHg 26%
    17:00 +32°C° 0 mm 5 mps 759 mmHg 28%
    18:00 +29°C° 0 mm 4 mps 760 mmHg 32%
    19:00 +27°C° 0 mm 4 mps 760 mmHg 36%
    20:00 +25°C° 0 mm 3 mps 761 mmHg 40%
    21:00 +25°C° 0 mm 3 mps 761 mmHg 40%
    22:00 +25°C° 0 mm 3 mps 761 mmHg 40%
    23:00 +24°C° 0 mm 3 mps 761 mmHg 41%
    Show more